Home > Time Zones > World Clock > Weather > Iran > Yazd > Past weeks

Flag for Iran Weather past 2 weeks in Yazd, Iran

Now
68 °F

Partly cloudy.


Feels Like: 68 °F
Forecast: 66 / 88 °F
Wind: 7 mph from Northeast

Location: Yazd Airport

Current Time: May 5, 2015 at 6:53:51 AM

Latest Report: May 5, 2015 at 6:30 AM


Visibility: N/A

Pressure: 29.95 "Hg

Humidity: 53%

Dew point: 50 °F

Location of YazdLocation

Historic Weather in Yazd — Graph

°F

Yazd temperature yesterday

Maximum temperature yesterday: 90 °F (at 2:30 PM)
Minimum temperature yesterday: 70 °F (at 6:30 AM)
Average temperature yesterday: 82 °F

Past Weeks' High & Low Weather Summary

 TemperatureHumidityPressure
High95 °F (Apr 24, 3:30 PM)37% (Apr 29, 5:30 AM)30.33 "Hg (Apr 29, 5:30 AM)
Low54 °F (Apr 26, 6:00 AM)4% (Apr 25, 7:30 PM)29.89 "Hg (Apr 25, 3:30 PM)
Average78 °F13%30.06 "Hg
* Reported Apr 20 5:30 AM — May 5 5:30 AM, Yazd, Weather by CustomWeather, © 2015

Note: Actual official high and low records may vary slightly from our data, if they occured in-between our weather recording intervals... More about our weather records

Advertising

Yazd weather history for previous 24 hours

 ConditionsComfort  
Time TempWeatherWind HumidityBarometerVisibility
5:30 AM
Tue, May 5
75 °FPassing clouds.5 mph29%29.92 "HgN/A
4:30 AM75 °FPassing clouds.5 mph27%29.92 "HgN/A
3:30 AM75 °FSprinkles. Sandstorm.20 mph27%29.95 "Hg1 mi
2:30 AM81 °FMostly cloudy.5 mph18%29.89 "Hg3 mi
1:30 AM81 °FMostly cloudy.5 mph18%29.92 "Hg3 mi
12:30 AM82 °FMostly cloudy.9 mph16%29.95 "HgN/A
12:00 AM82 °FMostly cloudy.5 mph16%29.95 "HgN/A
11:30 PM
Mon, May 4
82 °FMostly cloudy.12 mph16%29.95 "HgN/A
11:00 PM82 °FOvercast.12 mph15%29.95 "HgN/A
10:30 PM82 °FMostly cloudy.9 mph14%29.95 "HgN/A
10:00 PM84 °FMostly cloudy.12 mph12%29.95 "HgN/A
9:30 PM84 °FMostly cloudy.7 mph10%29.95 "HgN/A
9:00 PM86 °FPartly sunny.5 mph11%29.92 "HgN/A
8:30 PM86 °FPartly sunny.5 mph10%29.92 "HgN/A
8:00 PM86 °FPartly sunny.7 mph10%29.92 "HgN/A
7:30 PM86 °FPartly sunny.9 mph10%29.92 "HgN/A
7:00 PM88 °FOvercast.12 mph9%29.92 "HgN/A
6:30 PM88 °FOvercast.12 mph8%29.92 "HgN/A
6:00 PM88 °FMostly cloudy.2 mph9%29.92 "HgN/A
5:30 PM90 °FMostly cloudy.2 mph9%29.92 "HgN/A
4:30 PM90 °FPartly sunny.2 mph9%29.92 "HgN/A
3:30 PM90 °FPartly sunny.5 mph9%29.95 "HgN/A
2:30 PM90 °FPartly sunny.2 mph9%29.95 "HgN/A
1:30 PM88 °FPartly sunny.7 mph10%29.98 "HgN/A
1:00 PM88 °FPartly sunny.7 mph10%29.98 "HgN/A
12:30 PM88 °FPartly sunny.5 mph11%30.01 "HgN/A
12:00 PM86 °FPartly sunny.7 mph11%30.01 "HgN/A
11:30 AM86 °FPartly sunny.7 mph11%30.01 "HgN/A
11:00 AM84 °FPartly sunny.7 mph12%30.04 "HgN/A
10:30 AM84 °FPartly sunny.5 mph13%30.04 "HgN/A
10:00 AM82 °FScattered clouds.2 mph14%30.04 "HgN/A
9:30 AM79 °FScattered clouds.5 mph17%30.04 "HgN/A
9:00 AM77 °FSunny.7 mph18%30.04 "Hg10 mi
8:30 AM77 °FSunny.5 mph19%30.04 "Hg10 mi
8:00 AM79 °FSunny.2 mph18%30.04 "Hg10 mi
7:30 AM73 °FClear.5 mph20%30.01 "Hg10 mi
7:00 AM72 °FPassing clouds.7 mph22%30.01 "HgN/A
6:30 AM70 °FPartly cloudy.2 mph23%30.01 "HgN/A
6:00 AM72 °FPassing clouds.5 mph22%30.01 "HgN/A
Weather by CustomWeather, © 2015

See weather overviewHow to use our weather pages